Printer-friendly version

IAU Minor Planet Center

Minor Planet Center

MPEC 2003-U79 : 2003 UW29

The following Minor Planet Electronic Circular may be linked-to from your own Web pages, but must not otherwise be redistributed electronically.


Read MPEC 2003-U78 Read MPEC 2003-U80


M.P.E.C. 2003-U79                                Issued 2003 Oct. 28, 00:41 UT

     The Minor Planet Electronic Circulars contain information on unusual
         minor planets and routine data on comets.  They are published
   on behalf of Commission 20 of the International Astronomical Union by the
          Minor Planet Center, Smithsonian Astrophysical Observatory,
                          Cambridge, MA 02138, U.S.A.

         Supported in part by the Steven and Michele Kirsch Foundation
             Prepared using the Tamkin Foundation Computer Network

                              MPC@CFA.HARVARD.EDU
          URL http://cfa-www.harvard.edu/iau/mpc.html  ISSN 1523-6714

                                   2003 UW29

Observations:
     K03U29W* C2003 10 25.32212 04 49 23.91 +15 50 26.9          19.8        704
     K03U29W  C2003 10 25.33373 04 49 16.07 +15 50 11.5          19.8        704
     K03U29W  C2003 10 25.34546 04 49 08.04 +15 49 53.9          19.7        704
     K03U29W  C2003 10 25.35706 04 49 00.13 +15 49 38.2          19.6        704
     K03U29W  C2003 10 25.36868 04 48 52.26 +15 49 20.1          20.1        704
     K03U29W  C2003 10 27.36391 04 27 16.33 +14 58 12.7          19.1        704
     K03U29W  C2003 10 27.38662 04 27 01.79 +14 57 36.6          19.9        704
     K03U29W  C2003 10 27.39795 04 26 54.55 +14 57 17.2          19.5        704
     K03U29W  C2003 10 27.40930 04 26 47.21 +14 57 00.0          19.7        704
     K03U29W  C2003 10 28.00027 04 20 41.11 +14 41 00.6                      557
     K03U29W  C2003 10 28.00160 04 20 40.31 +14 40 57.7                      557
     K03U29W  C2003 10 28.00226 04 20 39.91 +14 40 57.0                      557
     K03U29W  C2003 10 28.00292 04 20 39.48 +14 40 56.1                      557
     K03U29W  C2003 10 28.00558 04 20 37.96 +14 40 51.5                      557
     K03U29W  C2003 10 28.00624 04 20 37.41 +14 40 51.7          19.5 V      557
     K03U29W  C2003 10 28.00692 04 20 36.98 +14 40 50.4                      557
     K03U29W  C2003 10 28.00759 04 20 36.58 +14 40 48.5                      557
     K03U29W  C2003 10 28.00825 04 20 36.18 +14 40 47.5                      557
     K03U29W  C2003 10 28.00891 04 20 35.80 +14 40 46.7                      557

Observer details:
557 Ondrejov.  Observer P. Kusnirak.  0.65-m f/3.6 reflector + CCD.
704 Lincoln Laboratory ETS, New Mexico.  Observers M. Blythe, F. Shelly,
    M. Bezpalko, R. Huber, L. Manguso, D. Torres, R. Kracke, M. McCleary,
    H. Stange.  Measurers J. Stuart, R. Sayer, J. Evans, J. Kommers.  1.0-m
    f/2.15 reflector + CCD.

Orbital elements:
2003 UW29
Epoch 2003 Dec. 27.0 TT = JDT 2453000.5                 MPC
M 101.51347              (2000.0)            P               Q
n   0.83367331     Peri.   57.62474     -0.29406156     +0.95565555
a   1.1180780      Node   195.29802     -0.89582871     -0.28134699
e   0.8064371      Incl.    3.43753     -0.33319473     -0.08698474
P   1.18           H   20.6           G   0.15           U   9
Residuals in seconds of arc
031025 704  0.4-  0.8-    031027 704  0.3+  1.0-    031028 557  0.3-  0.9+
031025 704  0.5+  0.5+    031027 704  0.9-  0.0     031028 557  0.4-  0.7+
031025 704  0.1-  0.2-    031028 557  0.6-  0.2+    031028 557  0.2-  0.1-
031025 704  0.3-  0.9+    031028 557  0.2-  0.6-    031028 557  0.0   0.1-
031025 704  0.3+  0.3-    031028 557  0.0   0.2-    031028 557  0.4+  0.2+
031027 704  0.3+  0.2+    031028 557  0.3-  0.1-
031027 704  0.2+  0.3+    031028 557  1.7+  0.4-

Ephemeris:
2003 UW29                a,e,i = 1.12, 0.81, 3                   q = 0.2164
Date    TT    R. A. (2000) Decl.     Delta      r     Elong.  Phase     V
2003 10 28    04 20.69   +14 41.3    0.273    1.233   147.6    25.6    19.4
2003 11 07    02 59.41   +10 22.4    0.355    1.345   173.5     4.8    19.4
2003 11 17    02 14.28   +07 34.2    0.477    1.445   159.0    14.2    20.6
2003 11 27    01 51.20   +06 13.9    0.624    1.534   143.5    22.5    21.6

Timothy B. Spahr             (C) Copyright 2003 MPC           M.P.E.C. 2003-U79

Read MPEC 2003-U78 Read MPEC 2003-U80


Our Web policy. Index to the CBAT/MPC/ICQ pages.


Valid HTML 4.01!